[[{"header":{"parameterUnit":"m.s-1","parameterCategory":1,"la1":30.2991,"la2":30.254,"lo1":-89.0895,"lo2":-89.0444,"dy":0.0017,"dx":0.0017,"nx":28,"ny":28,"refTime":"2025-07-02T21:00:00:Z","depth":0,"parameterNumber":2,"parameterNumberName":"U-component_of_WINDS"},"data":[0,0,0,0,0,0,0,0,0,0,0,0,0,0,0,0,0,0,0,0,0,0,0,0,0,0,0,0,0,0,0,0,0,0,0,0,0,0,0,0,0,0,0,0,0,0,0,0,0,0,0,0,0,0,0,0,0,0,0.6101,0.6101,0,0.6153,0.6154,0.6155,0.619,0.619,0.619,0.619,0.6248,0.6249,0.6251,0,0,0,0,0,0,0,0,0,0,0,0,0,0.6036,0.6037,0.6101,0.6102,0.6102,0.6153,0.6154,0.6155,0.619,0.619,0.619,0.619,0.6248,0.6249,0.6251,0,0,0,0,0,0,0,0,0,0,0,0,0,0.6074,0.6037,0.6101,0.6126,0.6128,0.6153,0.6154,0.6155,0.619,0.619,0.619,0.6191,0.6247,0.6249,0.6251,0.6256,0,0,0.6257,0.6258,0,0,0,0,0,0,0,0,0.6072,0.6076,0.6121,0.6124,0.6127,0.6165,0.6152,0.6189,0.619,0.6166,0.619,0.6191,0.6221,0.6225,0.6234,0.6259,0.6262,0.6257,0.6259,0.6259,0.626,0,0,0,0,0,0,0,0.6069,0.6074,0.6122,0.6122,0.6125,0.6136,0.6142,0.616,0.6191,0.6169,0.6171,0.6177,0.6222,0.6232,0.6236,0.6263,0.6257,0.6259,0.626,0.6261,0.6298,0.6298,0,0,0,0,0,0,0.6062,0.6072,0.612,0.6123,0.6099,0.6137,0.6143,0.6153,0.6191,0.6197,0.6176,0.6178,0.6228,0.6233,0.6238,0.6248,0.6259,0.6261,0.6262,0.6298,0.6298,0.6298,0,0,0,0,0,0,0.606,0.6066,0.6118,0.6098,0.6106,0.6137,0.6148,0.6154,0.6163,0.6197,0.6203,0.618,0.6229,0.6235,0.6252,0.6251,0.6262,0.6264,0.6298,0.6298,0.6298,0.6268,0,0,0,0,0,0,0.6058,0.6065,0.6066,0.6098,0.6107,0.6129,0.6148,0.6154,0.6166,0.6169,0.6202,0.6208,0.623,0.6249,0.6254,0.6254,0.6265,0.6299,0.6298,0.6298,0.6269,0.6267,0.6264,0,0,0,0,0,0.6056,0.6056,0.6066,0.6071,0.6108,0.6129,0.6134,0.6158,0.6166,0.6168,0.619,0.6207,0.625,0.625,0.6256,0.6256,0.6299,0.6298,0.6298,0.627,0.6267,0.6264,0,0,0,0,0,0,0.6023,0.606,0.6072,0.6082,0.6102,0.6135,0.6138,0.6154,0.6173,0.6175,0.6205,0.6213,0.6227,0.6244,0.6243,0.6265,0.6277,0.6277,0.6254,0.6251,0.6249,0.6244,0.6267,0,0,0,0,0,0.6017,0.603,0.6062,0.6068,0.6077,0.6106,0.6116,0.6133,0.6155,0.6165,0.6188,0.621,0.6229,0.6241,0.626,0.6272,0.6281,0.6276,0.6273,0.6271,0.6271,0.6281,0.628,0.6296,0.6296,0.6296,0,0,0.6005,0.6027,0.6033,0.6062,0.6079,0.6094,0.6113,0.6126,0.6138,0.6167,0.6184,0.6202,0.623,0.6245,0.6253,0.6259,0.6269,0.6271,0.6269,0.627,0.6281,0.6279,0.6278,0.6296,0.6296,0.6296,0,0,0.599,0.6007,0.6014,0.6032,0.6058,0.6077,0.6079,0.611,0.6123,0.6141,0.6164,0.6179,0.621,0.623,0.6243,0.6238,0.6255,0.6244,0.6231,0.6241,0.6239,0.6238,0.6238,0.6237,0.6244,0.6244,0.6244,0,0.5972,0.5992,0.6017,0.6029,0.6042,0.6069,0.6078,0.6094,0.6126,0.6135,0.6142,0.6183,0.6204,0.6224,0.6223,0.6233,0.6238,0.624,0.6237,0.6237,0.6236,0.6236,0.6236,0.6242,0.6243,0.6243,0.6243,0,0.5969,0.5983,0.5987,0.6015,0.6029,0.604,0.6068,0.6079,0.6095,0.6115,0.6134,0.616,0.6185,0.6192,0.6208,0.6216,0.6219,0.6231,0.6243,0.6233,0.6233,0.6233,0.624,0.6241,0.6241,0.6242,0,0,0.5934,0.5977,0.5978,0.5993,0.6024,0.6037,0.605,0.6074,0.6084,0.6106,0.6119,0.6146,0.6158,0.6174,0.6193,0.6201,0.6197,0.6212,0.6213,0.6209,0.621,0.62,0.62,0.6209,0.6209,0.6209,0.6208,0,0.5925,0.5947,0.5971,0.5986,0.6001,0.6027,0.6039,0.6061,0.6081,0.6097,0.6119,0.6138,0.6152,0.6162,0.6171,0.6195,0.6198,0.6196,0.6223,0.6224,0.6215,0.62,0.619,0.6187,0.6208,0.6208,0.6208,0,0.5916,0.5936,0.5952,0.5984,0.5991,0.6001,0.6026,0.6041,0.6068,0.6082,0.61,0.612,0.6138,0.6149,0.6175,0.6173,0.6186,0.62,0.6201,0.6204,0.6215,0.6204,0.6187,0.6187,0.6208,0.6208,0.6208,0,0.589,0.5921,0.5935,0.5946,0.5984,0.5991,0.6007,0.6034,0.6047,0.607,0.608,0.6105,0.6119,0.6139,0.6167,0.6171,0.6191,0.6203,0.6205,0.6204,0.6207,0.6207,0.6193,0.6215,0.6215,0.6215,0.6215,0,0.5877,0.5887,0.5924,0.5933,0.5945,0.5973,0.5985,0.6004,0.6028,0.6043,0.6068,0.6082,0.6117,0.6136,0.6158,0.6178,0.6184,0.6197,0.6203,0.6195,0.6193,0.6204,0.6205,0.6215,0.6215,0.6215,0.6215,0,0.585,0.5875,0.5893,0.5927,0.5936,0.5944,0.5974,0.5985,0.6006,0.6024,0.6031,0.6064,0.6088,0.6118,0.6151,0.6166,0.6184,0.6193,0.6174,0.6178,0.6178,0.6178,0.617,0.6172,0.6192,0.6192,0.6191,0,0.584,0.5848,0.5883,0.5894,0.5909,0.5926,0.594,0.5969,0.5983,0.6015,0.6023,0.6048,0.607,0.6107,0.6136,0.6163,0.6173,0.6169,0.6177,0.6169,0.6174,0.6173,0.6175,0.6166,0.6166,0.6166,0.6165,0,0.5821,0.5833,0.5851,0.5874,0.589,0.591,0.5931,0.594,0.5974,0.5989,0.6012,0.6029,0.6063,0.6089,0.612,0.6139,0.6159,0.6163,0.6165,0.6156,0.6146,0.6153,0.6169,0.6162,0.6163,0.6163,0.6163,0.6163,0.5803,0.5811,0.5837,0.5857,0.5876,0.5896,0.5908,0.5931,0.5951,0.5979,0.5996,0.602,0.605,0.6092,0.6111,0.6132,0.6139,0.6142,0.6142,0.6143,0.6141,0.6142,0.6138,0.6138,0.6138,0.6138,0.6138,0,0.5785,0.5803,0.5821,0.585,0.5866,0.5882,0.5907,0.592,0.594,0.5965,0.5986,0.6015,0.604,0.6072,0.61,0.6111,0.6121,0.6118,0.6118,0.6122,0.6132,0.6128,0.6109,0.6109,0.6109,0.6109,0.6109,0.6109,0.5778,0.5793,0.5809,0.5836,0.5855,0.5877,0.589,0.5909,0.593,0.596,0.598,0.6,0.6029,0.606,0.6085,0.6094,0.6104,0.6098,0.611,0.6119,0.6121,0.6124,0.612,0.61,0.61,0.6098,0.6098,0.6098]},{"header":{"parameterUnit":"m.s-1","parameterCategory":1,"la1":30.2991,"la2":30.254,"lo1":-89.0895,"lo2":-89.0444,"dy":0.0017,"dx":0.0017,"nx":28,"ny":28,"refTime":"2025-07-02T21:00:00:Z","depth":0,"parameterNumber":3,"parameterNumberName":"V-component_of_WINDS"},"data":[0,0,0,0,0,0,0,0,0,0,0,0,0,0,0,0,0,0,0,0,0,0,0,0,0,0,0,0,0,0,0,0,0,0,0,0,0,0,0,0,0,0,0,0,0,0,0,0,0,0,0,0,0,0,0,0,0,0,-0.5016,-0.5014,0,-0.4844,-0.4842,-0.484,-0.4798,-0.4799,-0.48,-0.4801,-0.4618,-0.4613,-0.4607,0,0,0,0,0,0,0,0,0,0,0,0,0,-0.5303,-0.5298,-0.5016,-0.5014,-0.5012,-0.4845,-0.4842,-0.484,-0.4798,-0.4799,-0.48,-0.4802,-0.462,-0.4613,-0.4606,0,0,0,0,0,0,0,0,0,0,0,0,0,-0.5159,-0.5296,-0.5016,-0.497,-0.4965,-0.4845,-0.4842,-0.4839,-0.4797,-0.4799,-0.4801,-0.4802,-0.4623,-0.4614,-0.4605,-0.4517,0,0,-0.4578,-0.4575,0,0,0,0,0,0,0,0,-0.5167,-0.5149,-0.4979,-0.4973,-0.4967,-0.4844,-0.4877,-0.4731,-0.4797,-0.4861,-0.4801,-0.4803,-0.4692,-0.4677,-0.4641,-0.4509,-0.4501,-0.4578,-0.4572,-0.4568,-0.4566,0,0,0,0,0,0,0,-0.5177,-0.5156,-0.4948,-0.4977,-0.4969,-0.4957,-0.4939,-0.4849,-0.4769,-0.4855,-0.4852,-0.4832,-0.4689,-0.465,-0.4637,-0.4498,-0.4578,-0.457,-0.4564,-0.4561,-0.4288,-0.4286,0,0,0,0,0,0,-0.5196,-0.5164,-0.4953,-0.4943,-0.5074,-0.4951,-0.493,-0.4882,-0.477,-0.4754,-0.4831,-0.4831,-0.4664,-0.4647,-0.463,-0.4522,-0.4568,-0.456,-0.4555,-0.429,-0.4288,-0.4286,0,0,0,0,0,0,-0.5202,-0.5178,-0.496,-0.5053,-0.5024,-0.4944,-0.489,-0.4877,-0.4839,-0.4751,-0.4736,-0.4807,-0.4665,-0.4643,-0.4547,-0.4515,-0.4556,-0.4548,-0.4292,-0.4289,-0.4287,-0.4304,0,0,0,0,0,0,-0.5211,-0.518,-0.5146,-0.5052,-0.5019,-0.4881,-0.4888,-0.4873,-0.4825,-0.4823,-0.4724,-0.471,-0.4664,-0.456,-0.4538,-0.4503,-0.4541,-0.4295,-0.4291,-0.4288,-0.4305,-0.4302,-0.4298,0,0,0,0,0,-0.5221,-0.5155,-0.5145,-0.5119,-0.4976,-0.4879,-0.486,-0.4811,-0.4822,-0.4787,-0.4732,-0.4713,-0.4522,-0.4551,-0.4525,-0.4488,-0.4297,-0.4292,-0.4288,-0.4307,-0.4302,-0.4298,0,0,0,0,0,0,-0.5244,-0.5142,-0.5129,-0.5031,-0.4965,-0.4872,-0.4826,-0.4807,-0.4734,-0.4735,-0.4676,-0.4654,-0.4563,-0.4515,-0.4549,-0.4398,-0.4409,-0.44,-0.4433,-0.4427,-0.4424,-0.4437,-0.4534,0,0,0,0,0,-0.5238,-0.517,-0.5084,-0.5006,-0.4974,-0.4906,-0.4862,-0.4831,-0.4759,-0.4729,-0.4666,-0.4595,-0.452,-0.4471,-0.4396,-0.4299,-0.4278,-0.4261,-0.4257,-0.4255,-0.4247,-0.4195,-0.4187,-0.4271,-0.4271,-0.4272,0,0,-0.5224,-0.516,-0.512,-0.5009,-0.4954,-0.4884,-0.4882,-0.4807,-0.4755,-0.4717,-0.4624,-0.4576,-0.4493,-0.4397,-0.4352,-0.4355,-0.4219,-0.4249,-0.4248,-0.4241,-0.4189,-0.4182,-0.4175,-0.4268,-0.4269,-0.427,0,0,-0.5164,-0.5108,-0.5039,-0.4985,-0.4903,-0.4859,-0.4843,-0.4754,-0.4722,-0.4629,-0.46,-0.4536,-0.4406,-0.435,-0.4303,-0.4227,-0.4208,-0.4204,-0.4185,-0.4135,-0.4129,-0.4122,-0.4097,-0.4088,-0.4197,-0.4197,-0.4197,0,-0.5156,-0.5051,-0.5005,-0.4933,-0.4886,-0.4852,-0.4782,-0.4731,-0.4627,-0.4595,-0.4601,-0.4441,-0.4382,-0.4274,-0.4257,-0.422,-0.4199,-0.4215,-0.4134,-0.4127,-0.412,-0.4095,-0.4086,-0.4197,-0.4197,-0.4197,-0.4197,0,-0.5048,-0.4976,-0.4929,-0.4835,-0.4782,-0.4711,-0.4653,-0.4606,-0.458,-0.4536,-0.4443,-0.4373,-0.4285,-0.4257,-0.4229,-0.4146,-0.4151,-0.4146,-0.4156,-0.4114,-0.4089,-0.4079,-0.4198,-0.4197,-0.4197,-0.4197,0,0,-0.4993,-0.4878,-0.4862,-0.482,-0.4729,-0.4672,-0.4601,-0.4518,-0.4479,-0.441,-0.4349,-0.4243,-0.4239,-0.4187,-0.4153,-0.411,-0.4057,-0.411,-0.4107,-0.4104,-0.3963,-0.3968,-0.3958,-0.4044,-0.4042,-0.404,-0.3971,0,-0.4923,-0.4796,-0.4754,-0.4648,-0.4583,-0.4552,-0.449,-0.4428,-0.4386,-0.4323,-0.4275,-0.4202,-0.4201,-0.4171,-0.4126,-0.4073,-0.4028,-0.4077,-0.3986,-0.3984,-0.4009,-0.3944,-0.3948,-0.3886,-0.3961,-0.3959,-0.3958,0,-0.4822,-0.4757,-0.4646,-0.4568,-0.4538,-0.4483,-0.4406,-0.4347,-0.4276,-0.4248,-0.4194,-0.4164,-0.4088,-0.4104,-0.3999,-0.4034,-0.3995,-0.3963,-0.396,-0.3949,-0.3968,-0.3933,-0.3864,-0.3855,-0.3942,-0.3943,-0.3944,0,-0.4797,-0.468,-0.4599,-0.4564,-0.447,-0.4433,-0.4392,-0.4323,-0.4277,-0.4209,-0.418,-0.4103,-0.4061,-0.4002,-0.3953,-0.3969,-0.3853,-0.3864,-0.3828,-0.383,-0.3805,-0.3807,-0.373,-0.3779,-0.3779,-0.3779,-0.3779,0,-0.4722,-0.4656,-0.4587,-0.4538,-0.4463,-0.4416,-0.4343,-0.4299,-0.424,-0.4181,-0.4149,-0.4094,-0.4033,-0.397,-0.3931,-0.3852,-0.3832,-0.3808,-0.3799,-0.3811,-0.3815,-0.3784,-0.3787,-0.3776,-0.3777,-0.3777,-0.3778,0,-0.468,-0.4631,-0.4542,-0.4462,-0.4441,-0.439,-0.4321,-0.4272,-0.423,-0.4157,-0.4136,-0.407,-0.3995,-0.3942,-0.3843,-0.3818,-0.3733,-0.3723,-0.3758,-0.3753,-0.3721,-0.3725,-0.3621,-0.3606,-0.3665,-0.3665,-0.3664,0,-0.4636,-0.4585,-0.4502,-0.4462,-0.4422,-0.4357,-0.4312,-0.4264,-0.4218,-0.4137,-0.4098,-0.4022,-0.3958,-0.384,-0.3782,-0.3708,-0.3696,-0.3666,-0.3685,-0.37,-0.3698,-0.3702,-0.3697,-0.3662,-0.3662,-0.3662,-0.3661,0,-0.4564,-0.4544,-0.4481,-0.4411,-0.436,-0.4301,-0.4242,-0.4211,-0.4153,-0.4103,-0.4028,-0.3979,-0.3882,-0.3807,-0.3729,-0.3684,-0.3663,-0.3657,-0.3644,-0.3657,-0.368,-0.3669,-0.3751,-0.3658,-0.3659,-0.3659,-0.3659,-0.3659,-0.452,-0.4475,-0.4411,-0.4343,-0.4295,-0.4242,-0.4193,-0.4148,-0.4085,-0.4005,-0.398,-0.3903,-0.3836,-0.3729,-0.3685,-0.3623,-0.3624,-0.3606,-0.3602,-0.3598,-0.36,-0.3691,-0.3608,-0.3608,-0.3608,-0.3608,-0.3608,0,-0.4448,-0.4406,-0.4345,-0.4266,-0.4213,-0.4202,-0.4137,-0.4093,-0.4027,-0.3968,-0.3908,-0.3823,-0.3752,-0.369,-0.3616,-0.3579,-0.3568,-0.3561,-0.3563,-0.3554,-0.3602,-0.3621,-0.3572,-0.3572,-0.3572,-0.3572,-0.3572,-0.3572,-0.4404,-0.4328,-0.4301,-0.4202,-0.416,-0.4086,-0.4051,-0.4002,-0.3955,-0.3864,-0.3805,-0.3767,-0.3707,-0.363,-0.3564,-0.3547,-0.3522,-0.3518,-0.3499,-0.3546,-0.355,-0.3554,-0.3571,-0.3513,-0.3513,-0.3456,-0.3456,-0.3455]}]]